Location: Roland
(31.1349°N, 85.4372°W)
Time: 20:26:44
(UTC+00:00)

Vanguard 2 Rocket - Pass Details

Date: 19 April 2021
Orbit: 554 x 3326 km, 32.9° (Epoch: 13 May)

Event Time Altitude Azimuth Distance (km) Brightness Sun altitude
Rises 03:37:10 0° 280° (W) 6,238 11.8 -38.3°
Reaches altitude 10° 03:44:17 10° 261° (W) 4,568 10.7 -39.2°
Maximum altitude 03:49:54 15° 233° (SW) 3,607 9.9 -40.0°
Enters shadow 03:50:32 14° 229° (SW) 3,544 9.8 -40.0°
